When you browse on this site, cookies collect data to enhance your experience and personalize the content and advertising you see.
Visit our Privacy Policy to learn more. By continuing to use the site, you agree to this use of cookies and data.

Hourly Weather Andora

Today, 13 August, Thursday

Time Temperature Precipitation Wind Pressure Humidity
00:00 +13°C° 0 mm 1 mps 624 mmHg 80%
01:00 +13°C° 0 mm 1 mps 624 mmHg 80%
02:00 +13°C° 0 mm 1 mps 624 mmHg 80%
03:00 +12°C° 0 mm 1 mps 624 mmHg 80%
04:00 +13°C° 0 mm 1 mps 624 mmHg 81%
05:00 +13°C° 0 mm 1 mps 624 mmHg 82%
06:00 +13°C° 0 mm 1 mps 625 mmHg 83%
07:00 +15°C° 0 mm 1 mps 626 mmHg 71%
08:00 +19°C° 0 mm 1 mps 627 mmHg 60%
09:00 +20°C° 0 mm 2 mps 628 mmHg 49%
10:00 +21°C° 0 mm 2 mps 628 mmHg 46%
11:00 +21°C° 0 mm 3 mps 629 mmHg 44%
12:00 +22°C° 0 mm 3 mps 629 mmHg 41%
13:00 +22°C° 0.1 mm 3 mps 629 mmHg 44%
14:00 +21°C° 0.1 mm 2 mps 628 mmHg 47%
15:00 +21°C° 0.1 mm 2 mps 628 mmHg 51%
16:00 +20°C° 0.2 mm 2 mps 627 mmHg 56%
17:00 +20°C° 0.2 mm 1 mps 627 mmHg 62%
18:00 +19°C° 0.2 mm 1 mps 627 mmHg 68%
19:00 +18°C° 0 mm 1 mps 627 mmHg 72%
20:00 +15°C° 0 mm 1 mps 626 mmHg 77%
21:00 +13°C° 0 mm 1 mps 626 mmHg 82%
22:00 +13°C° 0 mm 1 mps 626 mmHg 83%
23:00 +13°C° 0 mm 1 mps 626 mmHg 85%

Tomorrow, 14 August, Friday

Time Temperature Precipitation Wind Pressure Humidity
00:00 +12°C° 0 mm 1 mps 626 mmHg 86%
01:00 +12°C° 0 mm 1 mps 626 mmHg 86%
02:00 +12°C° 0 mm 1 mps 626 mmHg 86%
03:00 +12°C° 0 mm 1 mps 626 mmHg 86%
04:00 +12°C° 0 mm 1 mps 626 mmHg 85%
05:00 +13°C° 0 mm 1 mps 626 mmHg 83%
06:00 +13°C° 0 mm 1 mps 626 mmHg 82%
07:00 +16°C° 0 mm 1 mps 627 mmHg 71%
08:00 +20°C° 0 mm 1 mps 628 mmHg 59%
09:00 +22°C° 0 mm 1 mps 629 mmHg 47%
10:00 +23°C° 0 mm 2 mps 629 mmHg 45%
11:00 +24°C° 0 mm 2 mps 629 mmHg 43%
12:00 +24°C° 0 mm 3 mps 629 mmHg 40%
13:00 +24°C° 0.2 mm 3 mps 628 mmHg 43%
14:00 +24°C° 0.2 mm 3 mps 628 mmHg 46%
15:00 +22°C° 0.2 mm 3 mps 628 mmHg 49%
16:00 +21°C° 0.3 mm 2 mps 627 mmHg 56%
17:00 +21°C° 0.3 mm 1 mps 626 mmHg 64%
18:00 +20°C° 0.3 mm 1 mps 626 mmHg 71%
19:00 +18°C° 0.1 mm 1 mps 626 mmHg 76%
20:00 +15°C° 0.1 mm 1 mps 625 mmHg 81%
21:00 +14°C° 0.1 mm 1 mps 625 mmHg 86%
22:00 +14°C° 0 mm 1 mps 625 mmHg 86%
23:00 +13°C° 0 mm 1 mps 625 mmHg 87%

Day after tomorrow, 15 August, Saturday

Time Temperature Precipitation Wind Pressure Humidity
00:00 +13°C° 0 mm 1 mps 625 mmHg 87%
01:00 +13°C° 0 mm 1 mps 624 mmHg 86%
02:00 +13°C° 0 mm 1 mps 624 mmHg 86%
03:00 +13°C° 0 mm 1 mps 624 mmHg 85%
04:00 +14°C° 0 mm 1 mps 624 mmHg 82%
05:00 +14°C° 0 mm 1 mps 624 mmHg 79%
06:00 +15°C° 0 mm 1 mps 624 mmHg 77%
07:00 +18°C° 0 mm 1 mps 625 mmHg 64%
08:00 +20°C° 0 mm 2 mps 626 mmHg 51%
09:00 +23°C° 0 mm 2 mps 627 mmHg 39%
10:00 +24°C° 0 mm 2 mps 627 mmHg 37%
11:00 +25°C° 0 mm 3 mps 627 mmHg 35%
12:00 +26°C° 0 mm 4 mps 627 mmHg 34%
13:00 +26°C° 0 mm 3 mps 627 mmHg 36%
14:00 +25°C° 0 mm 3 mps 627 mmHg 38%
15:00 +25°C° 0 mm 3 mps 626 mmHg 40%
16:00 +22°C° 0.3 mm 3 mps 625 mmHg 50%
17:00 +20°C° 0.3 mm 2 mps 625 mmHg 60%
18:00 +20°C° 0.3 mm 1 mps 624 mmHg 71%
19:00 +18°C° 0.1 mm 1 mps 624 mmHg 74%
20:00 +16°C° 0.1 mm 1 mps 624 mmHg 77%
21:00 +15°C° 0.1 mm 1 mps 623 mmHg 80%
22:00 +14°C° 0 mm 1 mps 624 mmHg 81%
23:00 +14°C° 0 mm 1 mps 624 mmHg 81%

16 August, Sunday

Time Temperature Precipitation Wind Pressure Humidity
00:00 +14°C° 0 mm 1 mps 624 mmHg 82%
01:00 +14°C° 0 mm 1 mps 623 mmHg 81%
02:00 +14°C° 0 mm 1 mps 623 mmHg 81%
03:00 +12°C° 0 mm 0 mps 623 mmHg 80%
04:00 +13°C° 0 mm 0 mps 623 mmHg 81%
05:00 +13°C° 0 mm 0 mps 624 mmHg 81%
06:00 +13°C° 0 mm 0 mps 624 mmHg 81%
07:00 +16°C° 0 mm 1 mps 625 mmHg 72%
08:00 +19°C° 0 mm 1 mps 626 mmHg 63%
09:00 +22°C° 0 mm 1 mps 627 mmHg 53%
10:00 +21°C° 0 mm 2 mps 627 mmHg 47%
11:00 +22°C° 0 mm 3 mps 627 mmHg 41%
12:00 +24°C° 0 mm 3 mps 627 mmHg 35%
13:00 +24°C° 0 mm 3 mps 627 mmHg 38%
14:00 +24°C° 0 mm 3 mps 627 mmHg 40%
15:00 +24°C° 0 mm 3 mps 626 mmHg 42%
16:00 +21°C° 0.1 mm 3 mps 626 mmHg 51%
17:00 +20°C° 0.1 mm 2 mps 625 mmHg 59%
18:00 +19°C° 0.1 mm 1 mps 625 mmHg 67%
19:00 +18°C° 0 mm 1 mps 624 mmHg 74%
20:00 +15°C° 0 mm 1 mps 624 mmHg 81%
21:00 +14°C° 0 mm 1 mps 624 mmHg 87%
22:00 +14°C° 0 mm 1 mps 624 mmHg 87%
23:00 +13°C° 0 mm 1 mps 623 mmHg 88%

17 August, Monday

Time Temperature Precipitation Wind Pressure Humidity
00:00 +13°C° 0 mm 1 mps 623 mmHg 88%
01:00 +12°C° 0 mm 0 mps 623 mmHg 87%
02:00 +12°C° 0 mm 0 mps 624 mmHg 86%
03:00 +12°C° 0 mm 0 mps 624 mmHg 85%
04:00 +12°C° 0 mm 0 mps 624 mmHg 86%
05:00 +12°C° 0 mm 0 mps 624 mmHg 87%
06:00 +12°C° 0 mm 0 mps 624 mmHg 88%
07:00 +15°C° 0 mm 1 mps 625 mmHg 78%
08:00 +18°C° 0 mm 1 mps 626 mmHg 68%
09:00 +19°C° 0 mm 2 mps 627 mmHg 58%
10:00 +20°C° 0 mm 2 mps 627 mmHg 53%
11:00 +21°C° 0 mm 2 mps 627 mmHg 48%
12:00 +22°C° 0 mm 3 mps 627 mmHg 44%
13:00 +22°C° 0 mm 3 mps 627 mmHg 46%
14:00 +22°C° 0 mm 3 mps 626 mmHg 47%
15:00 +21°C° 0 mm 3 mps 626 mmHg 49%
16:00 +20°C° 0.1 mm 2 mps 626 mmHg 57%
17:00 +18°C° 0.1 mm 2 mps 625 mmHg 64%
18:00 +18°C° 0.1 mm 1 mps 625 mmHg 72%
19:00 +16°C° 0.1 mm 1 mps 625 mmHg 77%
20:00 +15°C° 0.1 mm 1 mps 625 mmHg 83%
21:00 +13°C° 0.1 mm 1 mps 625 mmHg 89%
22:00 +13°C° 0 mm 1 mps 625 mmHg 88%
23:00 +13°C° 0 mm 1 mps 625 mmHg 87%

18 August, Tuesday

Time Temperature Precipitation Wind Pressure Humidity
00:00 +12°C° 0 mm 1 mps 625 mmHg 86%
01:00 +12°C° 0 mm 1 mps 624 mmHg 85%
02:00 +12°C° 0 mm 1 mps 624 mmHg 83%
03:00 +11°C° 0 mm 1 mps 624 mmHg 82%
04:00 +12°C° 0 mm 1 mps 624 mmHg 80%
05:00 +12°C° 0 mm 1 mps 625 mmHg 79%
06:00 +12°C° 0 mm 1 mps 625 mmHg 77%
07:00 +15°C° 0 mm 1 mps 626 mmHg 69%
08:00 +18°C° 0 mm 1 mps 627 mmHg 60%
09:00 +20°C° 0 mm 1 mps 628 mmHg 52%
10:00 +20°C° 0 mm 2 mps 628 mmHg 50%
11:00 +20°C° 0 mm 2 mps 628 mmHg 48%
12:00 +21°C° 0 mm 3 mps 628 mmHg 46%
13:00 +21°C° 0 mm 2 mps 628 mmHg 47%
14:00 +21°C° 0 mm 2 mps 628 mmHg 48%
15:00 +21°C° 0 mm 2 mps 627 mmHg 49%
16:00 +20°C° 0.1 mm 2 mps 627 mmHg 55%
17:00 +20°C° 0.1 mm 1 mps 627 mmHg 62%
18:00 +19°C° 0.1 mm 1 mps 626 mmHg 68%
19:00 +16°C° 0 mm 1 mps 626 mmHg 74%
20:00 +15°C° 0 mm 1 mps 626 mmHg 80%
21:00 +13°C° 0 mm 1 mps 625 mmHg 86%
22:00 +13°C° 0 mm 1 mps 625 mmHg 86%
23:00 +13°C° 0 mm 1 mps 625 mmHg 86%
Show more